| time (UTC) | temp F | wind direction | speed MPH | gust MPH | rain 1hr in | rain 24hr in | rain mn in | humidity % | barometer mb |
| 20260504021530 | 54 | 153 | 7.0 | 16.0 | 0.00 | 0.00 | 0.00 | 49 | 1008.9 |
| 20260504020008 | 53 | 241 | 5.0 | 12.0 | 0.00 | 0.00 | 0.00 | 50 | 1009.1 |
| 20260504014502 | 54 | 173 | 7.0 | 13.0 | 0.00 | 0.00 | 0.00 | 48 | 1009.2 |
| 20260504013056 | 54 | 195 | 2.0 | 13.0 | 0.00 | 0.00 | 0.00 | 47 | 1009.2 |
| 20260504011543 | 54 | 176 | 5.0 | 13.0 | 0.00 | 0.00 | 0.00 | 47 | 1009.2 |
| 20260504010038 | 54 | 139 | 5.0 | 18.0 | 0.00 | 0.00 | 0.00 | 47 | 1009.1 |
| 20260504004542 | 54 | 160 | 8.0 | 22.0 | 0.00 | 0.00 | 0.00 | 47 | 1009.0 |
| 20260504003029 | 54 | 215 | 6.0 | 23.0 | 0.00 | 0.00 | 0.00 | 49 | 1009.5 |
| 20260504001525 | 54 | 170 | 10.0 | 19.0 | 0.00 | 0.00 | 0.00 | 47 | 1009.4 |
| 20260504000021 | 54 | 180 | 10.0 | 24.0 | 0.00 | 0.00 | 0.00 | 47 | 1009.5 |
| 20260503234516 | 54 | 233 | 9.0 | 21.0 | 0.00 | 0.00 | 0.00 | 46 | 1009.3 |
| 20260503233056 | 54 | 169 | 3.0 | 18.0 | 0.00 | 0.00 | 0.00 | 46 | 1009.2 |
| 20260503231555 | 54 | 175 | 7.0 | 21.0 | 0.00 | 0.00 | 0.00 | 46 | 1009.2 |
| 20260503230050 | 54 | 176 | 17.0 | 36.0 | 0.00 | 0.00 | 0.00 | 46 | 1009.5 |
| 20260503224542 | 55 | 223 | 8.0 | 24.0 | 0.00 | 0.00 | 0.00 | 45 | 1009.4 |
| 20260503223037 | 55 | 207 | 8.0 | 21.0 | 0.00 | 0.00 | 0.00 | 46 | 1009.4 |
| 20260503221533 | 56 | 172 | 8.0 | 30.0 | 0.00 | 0.00 | 0.00 | 44 | 1009.2 |
| 20260503220030 | 57 | 221 | 6.0 | 21.0 | 0.00 | 0.00 | 0.00 | 42 | 1009.1 |
| 20260503214521 | 56 | 231 | 8.0 | 26.0 | 0.00 | 0.00 | 0.00 | 42 | 1009.0 |
| 20260503213103 | 57 | 264 | 9.0 | 24.0 | 0.00 | 0.00 | 0.00 | 39 | 1009.1 |
| 20260503211603 | 58 | 153 | 6.0 | 19.0 | 0.00 | 0.00 | 0.00 | 40 | 1008.9 |
| 20260503210033 | 58 | 254 | 12.0 | 22.0 | 0.00 | 0.00 | 0.00 | 38 | 1008.7 |
| 20260503204531 | 58 | 231 | 6.0 | 24.0 | 0.00 | 0.00 | 0.00 | 40 | 1009.0 |
| 20260503203006 | 58 | 89 | 8.0 | 27.0 | 0.00 | 0.00 | 0.00 | 40 | 1009.1 |
| 20260503201502 | 58 | 159 | 10.0 | 24.0 | 0.00 | 0.00 | 0.00 | 39 | 1009.3 |
| 20260503200047 | 59 | 47 | 13.0 | 24.0 | 0.00 | 0.00 | 0.00 | 38 | 1009.6 |
| 20260503194545 | 58 | 144 | 7.0 | 27.0 | 0.00 | 0.00 | 0.00 | 38 | 1009.7 |
| 20260503193041 | 57 | 199 | 6.0 | 24.0 | 0.00 | 0.00 | 0.00 | 40 | 1009.9 |
| 20260503191533 | 56 | 216 | 10.0 | 26.0 | 0.00 | 0.00 | 0.00 | 40 | 1010.1 |
| 20260503190039 | 56 | 139 | 10.0 | 30.0 | 0.00 | 0.00 | 0.00 | 38 | 1010.4 |
| 20260503184524 | 56 | 169 | 6.0 | 19.0 | 0.00 | 0.00 | 0.00 | 37 | 1010.8 |
| 20260503183020 | 56 | 218 | 11.0 | 25.0 | 0.00 | 0.00 | 0.00 | 38 | 1010.9 |
| 20260503181515 | 54 | 194 | 13.0 | 26.0 | 0.00 | 0.00 | 0.00 | 40 | 1011.2 |
| 20260503180054 | 54 | 70 | 5.0 | 21.0 | 0.00 | 0.00 | 0.00 | 38 | 1011.4 |
| 20260503174604 | 53 | 171 | 5.0 | 22.0 | 0.00 | 0.00 | 0.00 | 44 | 1011.8 |
| 20260503173028 | 53 | 221 | 9.0 | 17.0 | 0.00 | 0.00 | 0.00 | 41 | 1012.0 |
| 20260503171523 | 52 | 283 | 6.0 | 21.0 | 0.00 | 0.00 | 0.00 | 44 | 1012.1 |
| 20260503081537 | 35 | 134 | 0.0 | 0.0 | 0.00 | 0.00 | 0.00 | 87 | 1013.6 |
| 20260503071600 | 36 | 216 | 0.0 | 0.0 | 0.00 | 0.00 | 0.00 | 86 | 1013.6 |
| 20260503054547 | 38 | 229 | 2.0 | 8.0 | 0.00 | 0.00 | 0.00 | 81 | 1014.0 |
| 20260503053044 | 38 | 188 | 0.0 | 0.0 | 0.00 | 0.00 | 0.00 | 81 | 1014.0 |
| 20260503051527 | 38 | 162 | 0.0 | 2.0 | 0.00 | 0.00 | 0.00 | 79 | 1014.2 |
| 20260503050027 | 38 | 184 | 0.0 | 7.0 | 0.00 | 0.00 | 0.00 | 79 | 1014.4 |
| 20260503044527 | 38 | 220 | 0.0 | 1.0 | 0.00 | 0.00 | 0.00 | 79 | 1014.3 |
| 20260503043025 | 38 | 187 | 0.0 | 2.0 | 0.00 | 0.00 | 0.00 | 78 | 1014.5 |
| 20260503041525 | 38 | 176 | 0.0 | 4.0 | 0.00 | 0.00 | 0.00 | 78 | 1014.5 |
| 20260503040025 | 38 | 172 | 0.0 | 0.0 | 0.00 | 0.00 | 0.00 | 77 | 1014.6 |
| 20260503034523 | 38 | 183 | 0.0 | 4.0 | 0.00 | 0.00 | 0.00 | 76 | 1014.7 |
| 20260503033028 | 38 | 186 | 0.0 | 2.0 | 0.00 | 0.00 | 0.00 | 75 | 1014.7 |
| 20260503031523 | 38 | 203 | 0.0 | 0.0 | 0.00 | 0.00 | 0.00 | 75 | 1014.7 |
| 20260503030022 | 38 | 195 | 0.0 | 4.0 | 0.00 | 0.00 | 0.00 | 76 | 1014.8 |
| 20260503024511 | 39 | 220 | 0.0 | 3.0 | 0.00 | 0.00 | 0.00 | 76 | 1014.9 |
| 20260503023012 | 39 | 212 | 0.0 | 2.0 | 0.00 | 0.00 | 0.00 | 75 | 1015.0 |